Regional Weather Roundup
Issued by NWS

Home | Current Version | Previous Version | Graphics & Text | Print | Product List | Glossary On
Versions: 1 2 3 4 5 6 7 8 9 10 11 12 13 14 15 16 17 18 19 20 21 22 23 24 25 26 27 28 29 30 31 32 33 34 35 36 37 38 39 40 41 42 43 44 45 46 47 48 49 50
000
ASUS43 KLMK 261710
RWRKY
KENTUCKY REGIONAL WEATHER ROUNDUP
NATIONAL WEATHER SERVICE LOUISVILLE KY
100 PM EDT THU MAR 26 2015

NOTE "FAIR" INDICATES FEW OR NO CLOUDS BELOW 12,000 FEET
WITH NO SIGNIFICANT WEATHER AND/OR OBSTRUCTIONS TO VISIBILITY.

KYZ001>023-026-027-061>063-070>075-261800-
WESTERN AND SOUTH CENTRAL KENTUCKY

CITY           SKY/WX    TMP DP  RH WIND       PRES   REMARKS
PADUCAH        LGT RAIN  44  40  85 N14       30.00R FOG
HENDERSON      CLOUDY    43  37  81 N10G16    29.98S
OWENSBORO      LGT RAIN  44  42  93 N9        29.96S FOG
HOPKINSVILLE   CLOUDY    48  44  87 N16G23    29.92S
BOWLING GREEN  LGT RAIN  50  45  83 N7        29.90F
GLASGOW        CLOUDY    50  47  87 N9        29.89S
$$

KYZ024-025-028>034-038-045-046-053-261800-
NORTH CENTRAL KENTUCKY

CITY           SKY/WX    TMP DP  RH WIND       PRES   REMARKS
LOUISVILLE/SDF LGT RAIN  46  42  86 N12       29.91F
LOUISVILLE/LOU LGT RAIN  46  42  86 N7        29.90F
FORT KNOX      CLOUDY    46  43  87 NW9       29.89F
$$

KYZ035>037-039>044-047>052-055>060-089>105-261800-
NORTHEAST KENTUCKY

CITY           SKY/WX    TMP DP  RH WIND       PRES   REMARKS
LEXINGTON      CLOUDY    47  44  90 N9G20     29.87R
COVINGTON      LGT RAIN  45  42  89 N12       29.88F
FRANKFORT      CLOUDY    48  44  86 N7        29.87F
$$

KYZ054-064>069-076>088-106>120-261800-
SOUTHEAST KENTUCKY

CITY           SKY/WX    TMP DP  RH WIND       PRES   REMARKS
JACKSON        CLOUDY    67  52  58 MISG      29.77F
LONDON         HVY RAIN  62  54  74 W24G38    29.81F
SOMERSET       CLOUDY    61  54  77 W16G24    29.84S
MIDDLESBORO    CLOUDY    69  58  68 S9G17     29.82F
MONTICELLO     MOSUNNY   64  57  78 W14       29.86F
$$



USA.gov is the U.S. government's official web portal to all federal, state and local government web resources and services.